Location: *
(58.7167°N, 26.1833°E)
Time: 06:08:00
(UTC+00:00)

Genesis I - Pass Details

Date: 25 August 2019
Orbit: 485 x 539 km, 64.5° (Epoch: 21 September)

Event Time Altitude Azimuth Distance (km) Brightness Sun altitude
Rises 19:57:22 0° 297° (WNW) 2,697 8.0 -15.1°
Reaches altitude 10° 19:59:40 10° 304° (NW) 1,799 7.1 -15.3°
Maximum altitude 20:03:33 44° 18° (NNE) 742 4.2 -15.5°
Enters shadow 20:06:49 14° 89° (E) 1,559 5.3 -15.8°
